GFSGL_con_sbcape_000.txt.gz
CAPE
1705 1934 1437 744 881 1397 1149 1149 1209 1571 1565 1473 1391 1263 1207 1024 1094 879 885 1024 536 698 782 627 574 342 100 30 3 6 9 16 50 5 74 240 368 194 222 516 205 127 449
1403 1830 1563 1326 957 902 1139 1025 1078 1266 1477 1436 1481 1408 1287 1135 1040 906 837 881 786 724 761 782 597 172 272 38 0 9 16 4 27 44 66 228 386 262 145 334 159 107 80
1238 918 1385 1448 1358 1446 1356 1332 1306 1303 1333 1468 1486 1290 1199 1218 1159 1129 936 851 947 915 923 740 623 362 243 81 1 3 10 11 1 13 50 219 298 325 297 302 103 154 200
631 898 1492 1605 1585 1392 1691 1835 1451 1714 1788 1811 1553 1435 1215 1235 1225 955 863 782 757 938 949 746 724 552 357 75 4 2 3 2 4 6 11 44 270 271 324 227 404 516 513
1038 1205 1610 1861 1736 1802 1894 1714 1667 1784 1671 1816 1636 1544 1566 1289 671 998 780 1027 1046 1008 1020 768 681 639 258 123 33 14 1 0 3 7 11 13 10 272 319 147 316 392 550
1008 1288 1769 1842 1724 1696 2034 2206 2072 2126 1968 1720 1549 1570 1523 1002 39 168 454 981 1019 981 972 875 734 517 448 164 103 93 6 20 2 6 8 3 1 20 280 226 181 327 311
1719 1590 1674 1816 1852 2096 2058 2089 2068 1969 2010 1932 1785 1633 1541 1374 216 66 277 547 779 832 968 974 577 562 293 246 198 58 32 7 11 9 21 20 15 11 112 262 167 258 249
1842 1813 1816 1966 2006 2283 2254 2220 2278 2266 2257 1858 1683 1704 1587 1060 120 8 45 536 791 891 1027 825 537 541 651 373 158 115 77 2 22 26 24 24 24 29 4 185 238 119 417
1813 1941 1975 2008 2148 2296 2328 2136 2308 2255 1939 1969 1763 1614 1314 1346 280 0 0 582 721 714 1126 737 779 464 333 14 26 58 1 3 7 0 3 2 3 9 0 11 201 126 154
1723 2018 2176 2239 2470 2504 2312 2140 1785 2088 1627 1101 1092 1420 1246 1277 40 54 35 10 43 377 833 840 361 0 0 0 0 15 30 37 9 7 5 4 0 1 0 1 0 220 33
1897 2125 2351 2582 2985 3003 2797 2174 1906 1175 934 1490 1504 1428 1400 955 427 93 0 94 110 498 170 193 612 0 0 0 0 33 1 0 23 20 14 10 10 0 3 0 6 400 102
2930 2684 2998 3211 2101 1793 2567 2244 1942 1998 1740 1287 1306 1012 634 461 123 30 9 0 7 82 150 245 308 0 0 0 0 0 0 1 4 16 18 8 5 18 7 230 62 201 400
2782 3281 3040 2480 2410 2378 2162 1876 2097 1644 1320 1429 965 536 445 202 538 9 0 0 0 0 146 29 0 0 0 0 0 0 0 1 2 17 30 23 7 10 4 412 433 165 192
3187 3313 3167 2672 2588 1957 1996 1642 941 1240 834 796 322 814 663 662 0 0 0 0 0 0 0 0 0 0 0 0 0 2 6 5 6 21 22 42 18 5 6 2 304 449 334
3182 2608 2696 2258 2130 1585 109 27 256 0 0 55 0 8 0 28 0 0 0 0 0 0 0 3 173 5 0 0 0 4 7 5 3 6 16 25 31 1 2 2 5 5 224
2211 1824 1586 1377 375 823 137 0 0 0 0 0 0 0 0 0 0 0 0 0 0 0 0 27 0 0 0 1 4 3 6 2 3 3 7 4 58 35 1 1 5 6 6
1660 1653 922 243 865 818 1092 1060 318 0 0 0 0 0 0 0 0 0 0 0 0 0 1 0 0 1 3 0 0 0 0 0 4 0 0 0 3 40 33 2 1 3 2
940 35 522 644 660 762 683 478 393 522 88 1 0 0 0 0 0 0 0 0 0 0 0 0 0 0 0 0 0 0 0 0 0 1 0 0 0 1 54 58 21 2 1
550 495 687 781 436 262 207 97 45 5 0 2 3 0 0 0 0 0 0 0 0 0 0 0 0 0 0 0 0 0 0 0 0 0 0 0 0 0 0 35 68 15 1
473 53 216 727 150 270 72 22 0 1 0 3 1 0 0 0 0 0 0 0 0 0 0 0 0 0 0 0 0 0 0 0 0 0 0 0 0 0 0 0 10 6 15
230 236 113 438 183 22 0 0 0 6 8 0 0 0 0 0 0 0 0 1 0 0 0 0 0 0 0 0 0 0 0 0 0 0 0 0 0 0 0 0 0 0 0
126 202 214 445 155 114 66 68 5 2 2 0 0 0 0 0 0 0 1 8 2 4 0 0 0 0 0 0 0 0 0 0 0 0 0 0 0 0 0 0 0 0 0
111 129 71 1 0 0 0 21 22 10 13 2 3 0 0 0 0 0 0 6 12 0 0 0 0 0 0 0 0 0 0 0 0 0 0 0 0 0 0 0 0 0 0
0 0 0 0 0 0 0 11 2 0 0 0 0 0 0 3 0 0 0 0 0 0 0 0 0 0 0 0 0 0 0 0 0 0 0 0 0 0 0 0 0 0 0
0 5 10 10 17 5 3 1 0 4 0 0 0 0 0 0 0 0 0 0 0 0 0 0 0 0 0 0 0 0 0 0 0 0 0 0 0 0 0 0 0 0 0
1 0 1 4 2 0 0 0 0 0 0 0 0 0 0 0 0 0 0 0 0 0 0 0 0 0 0 0 0 0 0 0 0 0 0 0 0 0 0 0 0 0 0

GFSGL_con_sbcape_003.txt.gz
CAPE
1089 686 568 548 255 240 112 51 125 271 371 343 313 262 237 320 343 373 163 137 213 117 200 111 118 0 0 0 0 0 0 0 7 2 1 1 9 14 50 305 239 77 98
980 740 102 2 30 160 60 54 49 30 48 124 76 144 379 398 444 402 161 217 235 119 85 83 131 61 0 0 0 0 0 0 3 0 0 0 1 0 11 73 81 188 68
660 573 161 135 57 67 136 107 82 67 32 12 68 265 167 237 337 300 408 315 144 180 101 169 133 61 2 0 0 0 0 0 0 1 0 0 0 1 5 128 79 45 102
531 439 317 393 268 262 235 250 294 218 148 328 537 283 240 257 251 459 431 283 137 143 294 273 103 106 58 19 0 0 0 0 0 0 0 1 4 1 3 13 95 157 113
324 209 366 484 439 479 457 483 444 244 450 415 379 357 333 570 622 213 225 203 248 323 356 293 268 183 343 47 7 0 0 0 0 0 0 4 6 0 4 8 21 158 248
173 330 726 750 633 561 461 495 407 323 451 671 223 203 385 450 26 12 7 16 84 211 202 255 291 393 176 197 202 291 105 8 0 4 3 12 5 19 8 3 14 30 109
264 432 572 591 553 562 604 734 946 808 557 169 358 542 354 397 412 89 19 0 9 55 184 213 153 327 273 69 19 100 148 142 120 24 31 49 35 22 32 26 24 21 19
347 656 672 717 723 686 797 898 932 702 507 510 603 318 501 586 426 56 1 0 6 99 179 248 304 148 155 53 11 1 0 22 7 47 50 22 17 19 24 33 25 17 44
475 533 879 756 690 842 1178 1199 1088 948 745 825 728 514 536 367 113 20 0 0 13 4 4 64 130 52 0 0 0 0 0 0 9 19 2 4 4 2 5 11 34 28 13
712 978 1074 999 1031 1269 1436 1344 1049 896 806 421 30 347 445 69 0 0 0 0 0 1 46 71 0 0 0 0 0 0 0 0 0 3 2 7 10 10 0 1 10 8 2
1030 1175 1315 1309 1435 1563 1601 1235 856 702 59 43 255 389 413 81 5 0 0 0 20 21 3 0 0 0 0 0 0 0 0 0 1 1 10 11 36 20 20 2 5 12 9
1122 1305 1646 1661 1769 1931 1085 959 693 584 320 283 288 319 70 0 1 0 0 0 10 0 0 0 0 0 0 0 0 0 0 0 3 9 19 34 43 23 8 5 1 2 6
856 1780 2064 2179 1407 873 630 592 601 175 296 304 219 123 6 0 0 0 0 0 0 0 0 0 0 0 0 0 0 0 0 4 3 4 10 34 25 23 9 2 4 0 1
2 71 460 1100 1107 732 86 46 0 0 2 124 12 2 0 0 0 0 0 0 0 0 0 0 0 0 0 0 0 0 0 1 5 4 4 5 3 20 14 10 4 3 42
1 997 634 1134 505 0 0 0 0 0 0 0 0 0 0 0 0 0 0 0 0 0 0 0 0 0 0 0 0 0 0 0 0 1 3 3 3 4 30 5 7 4 3
876 473 530 554 10 0 0 0 1 0 0 0 0 0 0 0 0 0 0 0 0 0 0 0 0 0 0 0 0 0 0 0 0 0 2 2 2 2 4 11 4 6 6
571 387 110 26 41 0 0 0 0 1 0 0 0 0 0 0 0 0 0 0 0 0 0 0 0 0 0 0 0 0 0 0 0 0 0 0 1 1 1 6 4 4 2
497 183 66 6 127 182 180 220 13 0 0 0 0 0 0 0 0 0 0 0 0 0 0 0 0 0 0 0 0 0 0 0 0 0 0 0 0 1 1 3 4 5 2
374 244 81 52 75 55 2 0 0 0 0 0 0 0 0 0 0 0 0 0 0 0 0 0 0 0 0 0 0 0 0 0 0 0 0 0 0 0 0 2 3 0 0
14 0 33 81 16 7 0 0 0 0 0 0 0 0 0 0 0 0 0 0 0 0 0 0 0 0 0 0 0 0 0 0 0 0 0 0 0 0 0 0 0 1 1
245 13 110 96 7 0 0 0 0 0 0 0 0 0 0 0 0 0 0 0 0 0 0 0 0 0 0 0 0 0 0 0 0 0 0 0 0 0 0 0 0 0 0
78 36 125 149 0 0 0 1 0 0 0 0 0 0 0 0 0 0 0 0 0 0 0 0 0 0 0 0 0 0 0 0 0 0 0 0 0 0 0 0 0 0 0
81 63 0 0 0 0 1 10 4 1 0 0 0 0 0 0 0 0 0 0 0 0 0 0 0 0 0 0 0 0 0 0 0 0 0 0 0 0 0 0 0 0 0
0 0 0 0 0 0 0 0 0 0 0 0 0 0 0 0 0 0 0 0 0 0 0 0 0 0 0 0 0 0 0 0 0 0 0 0 0 0 0 0 0 0 0
0 0 0 0 0 0 0 0 0 0 0 0 0 0 0 0 0 0 0 0 0 0 0 0 0 0 0 0 0 0 0 0 0 0 0 0 0 0 0 0 0 0 0
0 0 0 0 0 0 0 0 0 0 0 0 0 0 0 0 0 0 0 0 0 0 0 0 0 0 0 0 0 0 0 0 0 0 0 0 0 0 0 0 0 0 0

GFSGL_con_sbcape_006.txt.gz
CAPE
90 0 0 26 8 3 0 0 0 0 10 53 34 8 0 0 0 37 19 0 0 0 5 17 13 1 0 0 0 0 0 0 0 0 0 0 0 0 0 0 0 13 102
256 64 100 153 46 20 18 4 0 9 1 0 0 0 0 15 14 16 58 38 21 30 23 1 14 0 0 0 0 0 0 0 1 0 0 0 0 0 0 0 1 6 62
453 208 30 7 11 25 21 10 0 0 0 0 0 0 0 0 1 11 0 45 59 47 43 17 24 19 0 0 0 0 0 0 0 0 1 0 0 0 0 0 0 0 16
467 253 1 0 0 12 26 14 1 0 0 0 0 0 12 0 0 13 33 98 57 38 17 23 49 27 11 0 0 0 0 0 0 0 0 0 0 0 0 3 0 0 1
443 274 31 8 0 0 12 9 0 9 5 0 10 24 0 9 54 162 112 72 50 35 64 74 70 59 81 14 6 0 0 0 0 0 1 0 0 0 0 6 9 6 0
289 278 77 76 46 48 97 76 46 77 30 19 99 109 25 28 217 77 1 0 0 8 19 11 24 149 170 235 192 132 7 0 0 0 0 0 0 4 24 14 19 16 9
228 191 85 97 92 205 237 166 186 152 55 75 185 21 36 71 83 73 19 0 0 0 0 0 1 36 106 85 27 30 41 37 61 20 12 6 16 27 42 24 21 14 14
127 151 270 244 218 306 268 252 273 325 352 301 157 32 110 63 189 259 0 0 0 0 5 3 2 5 6 1 0 0 0 0 0 0 0 4 4 12 26 32 21 21 8
87 175 292 431 391 352 332 356 419 468 351 195 102 92 43 148 97 156 0 0 0 0 0 0 0 0 0 0 0 0 0 0 0 0 0 0 3 10 32 30 36 19 5
114 211 324 364 401 366 401 489 630 582 442 165 23 0 21 43 8 0 0 0 0 0 2 0 0 0 0 0 0 0 0 0 0 0 0 0 0 7 3 30 8 14 2
106 99 171 468 361 389 561 772 592 384 0 0 6 49 44 2 0 0 0 0 0 0 0 0 0 0 0 0 0 0 0 0 1 3 3 1 1 3 3 25 5 15 4
0 0 0 3 329 727 973 641 94 25 4 0 0 26 3 0 0 0 0 0 0 0 0 0 0 0 0 0 0 0 0 0 2 4 4 3 2 2 2 12 9 3 0
0 0 0 0 0 0 370 307 78 11 0 0 21 11 0 0 0 0 0 0 0 0 0 0 0 0 0 0 0 0 0 1 3 3 3 1 3 1 1 10 10 4 2
0 0 0 0 0 55 95 70 61 22 0 0 0 0 0 0 0 0 0 0 0 0 0 0 0 0 0 0 0 0 0 0 0 3 3 3 3 1 1 6 14 7 6
0 0 0 0 18 0 0 0 0 0 0 0 0 0 0 0 0 0 0 0 0 0 0 0 0 0 0 0 0 0 0 0 0 0 3 2 1 1 1 1 6 15 10
0 0 2 14 21 0 0 1 0 0 0 0 0 0 0 0 0 0 0 0 0 0 0 0 0 0 0 0 0 0 0 0 0 0 0 0 0 2 2 1 3 5 4
6 68 46 10 0 0 0 0 0 0 0 0 0 0 0 0 0 0 0 0 0 0 0 0 0 0 0 0 0 0 0 0 0 0 0 0 0 0 2 2 2 1 0
10 12 1 0 0 0 0 0 0 0 0 0 0 0 0 0 0 0 0 0 0 0 0 0 0 0 0 0 0 0 0 0 0 0 0 0 0 0 0 1 2 1 1
12 12 29 24 5 0 0 1 0 0 0 0 0 0 0 0 0 0 0 0 0 0 0 0 0 0 0 0 0 0 0 0 0 0 0 0 0 0 0 0 0 0 0
0 2 24 0 0 0 0 0 0 0 0 0 0 0 0 0 0 0 0 0 0 0 0 0 0 0 0 0 0 0 0 0 0 0 0 0 0 0 0 0 0 0 0
15 0 13 1 0 0 0 0 0 0 0 0 0 0 0 0 0 0 0 0 0 0 0 0 0 0 0 0 0 0 0 0 0 0 0 0 0 0 0 0 0 0 0
0 0 15 5 0 0 0 0 0 0 0 0 0 0 0 0 0 0 0 0 0 0 0 0 0 0 0 0 0 0 0 0 0 0 0 0 0 0 0 0 0 0 0
0 0 3 0 0 0 0 0 1 0 0 0 0 0 0 0 0 0 0 0 0 0 0 0 0 0 0 0 0 0 0 0 0 0 0 0 0 0 0 0 0 0 0
0 0 0 0 0 0 0 0 0 0 0 0 0 0 0 0 0 0 0 0 0 0 0 0 0 0 0 0 0 0 0 0 0 0 0 0 0 0 0 0 0 0 0
0 0 0 0 0 0 0 0 0 0 0 0 0 0 0 0 0 0 0 0 0 0 0 0 0 0 0 0 0 0 0 0 0 0 0 0 0 0 0 0 0 0 0
0 0 0 0 0 0 0 0 0 0 0 0 0 0 0 0 0 0 0 0 0 0 0 0 0 0 0 0 0 0 0 0 0 0 0 0 0 0 0 0 0 0 0

GFSGL_con_sbcape_009.txt.gz
CAPE
6 0 0 0 0 0 0 0 0 0 0 0 0 0 0 0 0 0 0 0 0 0 0 0 0 0 0 0 0 0 0 0 0 0 0 0 0 0 0 0 0 0 0
55 0 0 0 0 0 0 0 0 0 0 0 0 3 0 0 0 0 0 0 0 0 0 0 0 0 0 0 0 0 0 0 0 0 0 0 0 0 0 0 0 0 0
60 0 0 0 0 0 0 0 0 0 0 0 0 0 0 0 0 0 0 0 0 0 0 0 0 0 0 0 0 0 0 0 0 0 0 0 0 0 0 0 0 0 0
157 42 0 2 1 2 0 0 0 0 0 0 0 0 0 0 0 0 0 0 0 0 6 3 0 3 0 0 0 0 0 0 0 0 1 0 0 0 0 0 0 0 0
425 193 25 47 14 17 15 3 0 0 8 0 0 0 0 0 0 0 7 38 49 13 0 0 2 15 81 20 3 1 0 0 0 0 0 0 0 0 0 0 0 0 0
634 404 61 16 0 2 6 7 0 5 22 1 11 11 0 5 17 40 88 28 7 0 0 0 0 2 0 57 189 206 16 0 0 0 0 0 0 0 0 0 1 9 7
743 297 15 5 1 0 0 1 14 33 32 27 34 37 62 7 0 9 13 0 0 0 0 0 0 1 13 6 7 12 57 76 58 1 0 0 0 0 0 1 5 14 11
466 67 39 25 85 15 17 51 124 140 76 76 100 99 5 8 37 56 0 6 0 0 0 0 0 0 0 0 1 0 0 0 0 0 0 0 0 0 0 1 13 12 12
398 78 60 16 65 70 53 137 237 132 197 242 162 59 19 41 110 15 0 0 0 0 0 0 0 0 0 0 0 0 0 0 0 0 0 0 0 0 1 11 14 11 8
321 96 79 127 162 119 160 268 223 280 283 148 164 47 13 5 6 9 0 0 0 0 0 0 0 0 0 0 0 0 0 0 0 0 0 0 0 0 0 4 8 11 13
0 0 28 89 196 158 138 176 214 112 79 29 74 16 0 0 0 0 0 0 0 0 0 0 0 0 0 0 0 0 0 0 0 1 2 1 1 0 0 0 1 6 8
0 0 0 0 0 0 0 0 0 22 4 0 0 0 2 0 0 0 0 0 0 0 0 0 0 0 0 0 0 0 0 0 0 2 2 0 0 1 2 1 0 6 11
0 0 0 0 0 0 0 0 0 5 12 0 0 0 0 0 0 0 0 0 0 0 0 0 0 0 0 0 0 0 0 0 0 0 3 2 2 3 2 1 0 4 8
0 0 0 0 0 0 0 0 23 14 2 0 0 1 0 0 0 0 0 0 0 0 0 0 0 0 0 0 0 0 0 0 0 0 1 2 1 2 2 1 1 2 10
0 0 0 0 0 0 0 1 0 0 1 0 0 0 0 0 0 0 0 0 0 0 0 0 0 0 0 0 0 0 0 0 0 0 0 0 0 1 2 2 1 0 8
0 0 0 0 0 0 0 0 0 0 0 0 0 0 0 0 0 0 0 0 0 0 0 0 0 0 0 0 0 0 0 0 0 0 0 0 0 0 2 1 1 1 1
0 0 0 0 0 0 0 0 0 0 1 0 0 0 0 0 0 0 0 0 0 0 0 0 0 0 0 0 0 0 0 0 0 0 0 0 0 0 0 0 2 0 0
0 0 0 0 0 0 0 0 0 0 0 0 0 0 0 0 0 0 0 0 0 0 0 0 0 0 0 0 0 0 0 0 0 0 0 0 0 0 0 0 1 1 1
0 0 0 0 0 0 0 0 0 0 0 0 0 0 0 0 0 0 0 0 0 0 0 0 0 0 0 0 0 0 0 0 0 0 0 0 0 0 0 0 0 0 0
0 0 0 0 0 0 0 0 0 0 0 0 0 0 0 0 0 0 0 0 0 0 0 0 0 0 0 0 0 0 0 0 0 0 0 0 0 0 0 0 0 0 0
0 0 0 0 0 0 0 0 0 0 0 0 0 0 0 0 0 0 0 0 0 0 0 0 0 0 0 0 0 0 0 0 0 0 0 0 0 0 0 0 0 0 0
0 0 0 0 0 0 0 0 0 0 0 0 0 0 0 0 0 0 0 0 0 0 0 0 0 0 0 0 0 0 0 0 0 0 0 0 0 0 0 0 0 0 0
0 0 0 0 0 0 0 0 0 0 0 0 0 0 0 0 0 0 0 0 0 0 0 0 0 0 0 0 0 0 0 0 0 0 0 0 0 0 0 0 0 0 0
0 0 0 0 0 0 0 0 0 0 0 0 0 0 0 0 0 0 0 0 0 0 0 0 0 0 0 0 0 0 0 0 0 0 0 0 0 0 0 0 0 0 0
0 0 0 0 0 0 0 0 0 0 0 0 0 0 0 0 0 0 0 0 0 0 0 0 0 0 0 0 0 0 0 0 0 0 0 0 0 0 0 0 0 0 0
0 0 0 0 0 0 0 0 0 0 0 0 0 0 0 0 0 0 0 0 0 0 0 0 0 0 0 0 0 0 0 0 0 0 0 0 0 0 0 0 0 0 0

GFSGL_con_sbcape_015.txt.gz
CAPE
2148 2529 2604 1803 1413 860 696 309 105 427 354 449 481 261 262 292 271 348 418 302 315 481 510 474 524 583 367 314 309 170 99 65 54 0 4 3 0 1 14 39 19 0 0
2247 2482 2167 1353 315 721 13 103 256 172 253 334 342 293 299 272 360 460 440 191 445 495 466 615 596 466 629 594 574 291 230 232 129 92 134 37 76 64 87 146 144 13 0
2124 1876 1667 1088 452 207 251 81 174 201 130 179 177 266 205 266 518 658 448 410 534 416 477 531 579 546 777 520 348 188 142 155 168 101 74 41 67 113 136 229 207 112 24
1868 2014 1954 1376 818 485 18 25 0 19 22 151 84 196 349 479 568 469 243 444 651 481 435 560 613 606 566 403 312 258 219 195 145 137 95 67 76 134 131 158 96 45 22
2281 2131 1729 1138 707 273 112 23 0 0 0 6 33 91 177 65 149 267 360 634 908 820 631 704 717 546 197 113 104 129 191 171 115 96 123 111 94 94 113 129 93 71 108
2491 2137 1723 1174 539 315 245 187 27 0 0 68 21 62 118 100 45 0 174 707 933 902 778 733 707 95 41 0 2 23 68 101 114 158 174 176 257 150 110 76 31 10 11
2265 2058 1653 1110 549 511 326 120 58 0 0 38 89 174 295 539 104 8 14 480 810 911 893 713 550 118 10 95 7 0 9 2 15 108 57 66 113 70 52 26 14 20 18
2246 2044 1586 952 772 559 605 271 140 121 0 8 176 273 402 666 199 90 1 233 673 324 341 401 329 244 125 8 23 50 61 38 23 9 14 7 3 2 9 17 25 19 11
2203 2051 1448 993 909 646 639 268 67 129 165 485 193 215 760 793 34 64 23 347 417 424 378 211 126 113 0 0 0 14 23 25 1 0 0 0 0 0 3 18 10 15 14
2097 1975 1483 1165 1004 825 365 263 415 492 375 211 423 578 425 821 207 21 84 341 399 175 352 106 0 0 0 0 0 9 10 16 0 0 0 0 1 3 0 8 12 11 3
1854 1765 1309 1025 838 367 377 431 492 392 387 158 512 659 1010 432 298 38 1 247 190 224 206 100 20 0 0 0 0 4 2 0 0 0 0 1 3 2 1 4 9 16 15
1265 1199 980 912 862 557 448 442 468 688 732 477 518 461 304 334 3 0 0 0 13 152 170 40 0 0 0 0 0 0 0 0 0 2 3 1 0 0 0 0 0 3 11
943 681 777 874 994 893 834 792 807 695 168 204 189 8 107 169 87 1 1 1 0 4 1 0 0 0 0 0 0 0 0 0 0 1 0 0 0 0 0 0 0 0 9
908 795 847 987 817 714 546 441 191 72 33 44 125 354 308 129 17 0 0 0 0 0 0 0 0 0 0 0 0 0 0 0 0 0 0 0 0 0 0 0 0 3 10
774 703 835 864 664 2 3 8 8 14 10 76 212 299 334 205 40 0 0 0 0 0 0 0 0 0 0 1 0 0 0 0 0 0 0 0 0 0 0 0 0 5 6
400 307 252 67 1 0 0 2 1 0 0 1 0 15 0 0 0 0 0 0 0 0 0 0 1 2 2 0 0 0 0 0 0 0 0 0 0 0 0 0 0 5 7
552 485 85 5 0 0 0 0 0 0 0 0 0 0 0 0 0 0 0 0 0 0 0 0 1 1 0 0 0 0 0 0 0 0 0 0 0 0 0 0 0 0 0
482 0 307 55 2 3 1 0 1 4 0 0 0 0 0 0 0 0 0 0 0 0 0 0 1 0 0 0 0 0 0 0 0 0 0 0 0 0 0 0 0 0 1
48 0 0 6 41 14 2 24 30 20 4 0 0 0 0 0 0 0 0 0 0 0 0 0 0 0 0 0 0 0 0 0 0 0 0 0 0 0 0 0 0 0 0
108 0 9 156 93 105 71 97 81 41 0 0 0 0 0 0 0 0 0 0 0 0 0 0 0 0 0 0 0 0 0 0 0 0 0 0 0 0 0 0 0 0 0
276 245 47 190 179 161 168 157 133 66 27 0 0 0 0 0 0 0 0 0 0 0 0 0 0 0 0 0 0 0 0 0 0 0 0 0 0 0 0 0 0 0 0
81 105 180 261 276 210 225 155 207 209 114 67 50 0 0 0 0 0 0 0 0 0 0 0 0 0 0 0 0 0 0 0 0 0 0 0 0 0 0 0 0 0 0
94 139 274 349 415 32 128 303 270 184 127 113 69 0 0 0 0 0 0 0 0 0 0 0 0 0 0 0 0 0 0 0 0 0 0 0 0 0 0 0 0 0 0
224 281 289 283 284 378 407 385 217 19 86 68 21 0 0 0 3 0 0 0 0 0 0 0 0 0 0 0 0 0 0 0 0 0 0 0 0 0 0 0 0 0 0
92 165 212 248 289 341 174 131 80 116 82 67 47 27 29 26 8 0 0 0 0 0 0 0 0 0 0 0 0 0 0 0 0 0 0 0 0 0 0 0 0 0 0
0 21 13 0 1 26 62 61 62 73 63 60 53 39 25 29 43 28 0 0 0 0 0 0 0 0 0 0 0 0 0 0 0 0 0 0 0 0 0 0 0 0 0

GFSGL_con_sbcape_021.txt.gz
CAPE
4225 4337 4321 4302 3924 4464 3965 4025 3677 3128 2669 1958 1765 1700 1303 1188 952 1364 861 649 608 897 591 476 265 730 130 42 114 430 291 263 92 75 218 182 945 819 630 474 222 93 61
3786 4414 4384 4436 4034 3945 4150 3978 3938 3227 2895 2275 2092 1796 1290 781 523 588 978 314 705 677 895 1127 731 163 1416 1157 307 1134 543 558 43 636 271 118 580 730 1078 1156 331 82 69
3576 3657 4329 4435 4240 3982 4274 4142 3920 3479 2168 2011 2002 1534 1282 651 426 1112 1172 711 695 858 885 943 830 1095 1009 527 1421 750 211 635 1037 128 177 110 140 101 282 737 821 367 120
2789 3144 4034 4492 4452 4106 4248 4298 4209 3281 2541 2185 2019 1761 1211 871 620 786 978 722 745 793 845 694 566 950 900 1302 1322 1294 1064 647 485 173 228 176 140 339 112 134 84 103 14
3519 3703 4190 4582 4558 4554 4096 4225 4024 3021 2582 2096 1904 1666 938 295 127 447 599 609 806 697 575 1183 1223 1216 709 547 470 762 1342 769 236 152 154 102 94 283 202 145 76 86 175
4062 4065 4430 4779 4604 4578 4327 4065 3767 3050 2130 1920 1769 1203 754 0 0 113 324 322 875 994 1298 1137 1352 922 794 165 89 32 97 382 955 264 132 108 539 337 258 285 124 33 31
4324 4349 4651 4827 4761 4602 4172 3952 3547 2756 1938 1557 1155 888 103 222 0 0 29 315 684 1138 1456 1502 1149 599 489 719 151 18 14 0 0 104 214 433 374 382 449 341 268 80 11
4406 4580 4671 4886 4839 4398 3715 3567 2992 2224 2175 1597 1153 645 656 868 0 0 0 285 935 894 999 1735 1750 1651 1279 1042 692 729 808 701 563 128 345 317 356 139 41 48 68 25 21
4161 4519 4612 4647 4808 4173 3492 3141 2516 2226 1984 1563 1010 788 760 1320 0 0 0 305 438 1146 1644 1761 1572 1227 676 39 333 592 432 419 162 37 23 1 0 0 0 0 3 19 24
4265 4171 4604 4647 4276 3477 3126 3074 2613 2127 1602 1375 1109 810 562 1340 221 0 0 561 790 617 1747 1830 495 486 0 0 48 198 363 368 189 183 92 4 13 9 0 25 37 59 44
3339 3302 3810 3775 4018 3550 2743 2680 2011 1547 1369 1242 1205 899 849 1032 1128 30 0 678 383 617 1385 1295 884 4 0 0 0 59 96 27 55 0 0 9 64 45 22 109 390 60 32
3947 3949 4085 3992 3070 2812 2624 2402 1561 1647 1188 1224 914 807 1642 1622 716 0 0 1 85 797 593 472 335 0 0 0 0 0 0 0 0 0 25 31 5 2 4 12 44 39 12
3936 3940 3633 3290 2861 2765 2409 1428 904 1174 1058 859 1063 1976 1636 1979 1429 0 1 0 0 20 92 0 0 0 0 0 0 0 0 0 0 33 19 2 0 0 21 14 45 94 101
3501 2840 2431 1980 2142 1718 1261 1180 1011 1143 1215 1739 1659 1553 1565 1607 973 328 69 0 0 0 0 1 0 0 0 0 0 0 0 8 24 0 0 0 0 0 0 0 0 0 0
2331 1793 1607 1237 1451 773 0 526 1343 3 464 1217 1264 1092 898 769 440 3 0 0 5 20 155 148 62 45 39 43 50 137 34 40 18 6 1 0 0 0 0 0 0 0 1
2216 2009 1804 1287 1140 1030 552 4 0 0 0 0 0 0 0 0 0 0 0 0 0 0 63 58 18 115 341 189 75 64 73 20 12 7 0 0 0 0 0 0 0 0 0
2027 1889 1377 1159 1174 1159 835 663 365 0 0 0 0 0 0 0 0 0 0 0 0 0 0 0 10 261 459 237 59 35 20 17 7 0 0 0 0 0 0 0 0 0 0
1466 775 1051 957 797 644 410 342 176 49 0 0 0 0 0 0 0 0 0 0 0 0 0 0 38 208 58 24 18 12 9 3 0 0 0 0 0 0 0 0 0 0 0
1102 875 904 707 608 232 255 78 130 99 148 25 0 0 0 0 0 0 0 0 1 4 10 7 6 7 11 7 5 3 0 0 0 0 0 0 0 0 0 0 0 0 0
536 48 153 397 228 142 92 45 68 275 131 17 0 0 0 0 0 0 0 0 1 0 0 0 0 0 0 0 0 0 0 0 0 0 0 0 0 0 0 0 0 0 0
203 5 0 217 188 236 154 129 167 228 418 99 67 2 0 0 4 11 8 18 4 3 0 0 0 0 0 0 0 0 0 0 0 0 0 0 0 0 0 0 0 0 0
264 61 64 174 177 117 80 111 154 205 193 223 7 0 0 1 74 92 21 17 13 7 5 2 0 1 0 0 0 0 0 0 0 0 0 0 0 0 0 0 0 0 0
137 100 102 150 214 80 120 172 202 202 310 100 20 8 19 110 43 47 26 9 12 13 13 8 2 0 0 0 0 0 0 0 0 0 0 0 0 0 0 0 0 0 0
199 278 115 167 236 346 281 269 274 70 219 234 171 162 230 118 35 50 51 47 32 17 12 12 3 0 0 0 0 0 0 0 0 0 0 0 0 0 0 0 0 0 0
56 108 70 168 184 195 106 145 230 192 143 297 204 226 89 8 29 41 36 39 34 31 18 19 7 0 0 0 0 0 0 0 0 0 0 0 0 0 0 0 0 0 0
38 55 63 71 91 189 187 77 91 64 30 49 51 102 56 82 39 45 42 33 10 20 27 26 10 0 0 0 0 0 0 0 0 0 0 0 0 0 0 0 0 0 0

GFSGL_con_sbcape_024.txt.gz
CAPE
4140 4157 4249 4197 4110 3566 3343 3231 2965 2965 2804 2330 2062 1607 1345 1252 1379 989 834 1191 1032 956 587 832 993 982 513 436 738 689 614 85 131 224 206 233 500 513 313 325 408 186 24
3972 4093 4250 4212 4153 4028 3338 3641 3454 3153 3256 2721 1971 1607 1450 1130 1143 906 690 643 777 910 852 987 1068 713 904 890 710 704 691 523 304 179 185 273 359 309 529 655 390 68 80
3708 3830 4181 4086 4009 3894 3867 3250 3472 3308 2791 1939 2079 1719 1556 1125 941 857 1036 900 574 495 712 933 796 901 954 716 915 703 746 828 469 256 177 287 158 481 162 282 189 185 88
3409 3534 3774 3963 3937 3735 3752 3709 3579 3610 2927 2384 2018 1815 1553 1306 941 741 930 1003 819 676 1154 940 898 993 1195 1079 1197 1026 891 702 356 275 105 82 88 139 267 100 57 68 46
2957 3390 3760 4119 4082 4000 3670 3865 3526 3887 3256 2599 1969 1912 1724 1251 1002 637 709 1020 997 856 1052 1080 1061 1148 971 906 919 758 726 595 392 227 157 107 58 109 17 0 1 0 2
2541 3225 3514 3930 4317 4203 3906 3801 3914 3809 3546 2857 2109 1881 1689 1119 462 107 593 878 897 897 748 956 797 920 475 114 80 111 145 389 289 109 153 175 174 233 98 68 5 0 0
3317 3235 3534 3961 4290 4278 4248 3808 3915 3723 3398 2843 2111 1840 1607 1154 119 0 88 780 813 865 1087 1043 1047 635 802 1189 531 236 48 34 4 113 118 105 260 186 265 55 9 10 0
3484 3912 4046 4327 4474 4395 4255 4035 3647 3876 3570 2478 2163 1731 1400 967 0 0 0 385 355 627 855 1072 1205 1147 1202 1234 914 1054 809 619 67 20 8 85 335 301 142 13 0 0 0
3809 4588 4328 4648 4691 4545 4456 4089 3992 3728 3169 2431 1692 1342 1094 528 0 0 0 9 158 551 918 1025 1385 1091 1174 630 534 490 640 654 430 82 200 170 74 0 0 7 0 0 0
4145 4048 4686 4921 4742 4709 4572 4335 4030 3313 2565 2436 1925 1426 801 519 0 0 0 201 300 403 959 1078 729 990 782 10 64 552 444 372 604 369 104 13 2 2 1 6 14 11 13
4429 4459 4796 4686 4856 4860 4385 3774 3428 2779 2360 2177 1662 955 627 468 393 0 0 343 406 700 926 1086 1081 324 0 0 0 111 147 0 44 111 8 0 0 19 64 220 63 36 39
4525 4537 4706 4845 4375 4025 3570 2876 2858 2423 1910 1754 1161 948 771 879 585 0 0 13 256 918 1094 940 749 77 0 0 0 0 0 0 0 0 0 0 34 25 19 2 5 5 1
4207 4457 4581 4368 4004 3531 3004 2402 1957 1857 1180 950 903 755 832 1867 1373 14 0 1 1 245 231 0 0 0 0 0 0 0 0 0 0 0 9 1 0 2 0 0 9 21 56
4564 4236 3601 2692 2440 2030 1378 1122 1121 1156 1094 1095 1115 1466 1790 1538 663 20 0 0 1 0 0 0 0 0 0 0 0 0 0 1 35 34 6 0 18 0 0 0 0 0 0
2982 2708 2489 1989 1832 353 0 402 1018 20 404 1387 2109 1704 1440 1421 1048 468 532 265 40 0 0 0 0 0 0 0 6 33 19 33 47 60 27 13 0 0 0 0 0 0 0
2009 1721 1570 1600 1027 168 0 0 0 0 0 0 0 300 0 189 0 0 0 0 0 0 12 800 413 284 342 133 186 135 57 52 49 70 13 0 0 0 0 0 0 0 0
2322 1878 1379 1471 1288 1162 806 184 0 0 0 0 0 0 0 0 0 0 0 0 0 0 169 177 84 332 307 185 161 46 37 49 24 17 11 7 0 0 0 0 0 0 0
2266 1464 1563 1346 1185 1365 1081 1097 402 5 0 0 0 0 0 0 0 0 0 0 0 0 0 0 21 216 138 45 12 7 22 6 1 0 0 0 0 0 0 0 0 0 0
1522 1465 1489 1067 966 771 875 712 340 182 79 0 0 0 0 0 0 0 0 0 0 41 9 29 88 25 21 12 14 4 0 0 0 0 0 0 1 0 0 0 0 0 0
792 234 1110 879 277 642 429 147 228 226 57 0 0 0 0 0 0 0 0 0 0 6 4 0 0 0 0 0 0 0 0 0 0 2 0 0 0 0 0 0 0 0 0
786 360 0 243 283 289 266 188 231 326 170 60 19 0 0 0 0 0 0 0 16 5 36 11 6 8 4 3 0 0 0 0 0 0 0 0 0 0 0 0 0 0 0
178 177 146 174 196 466 293 303 369 244 295 115 134 0 0 0 19 29 10 32 10 47 30 50 7 13 13 1 0 0 0 0 0 0 0 0 0 0 0 0 0 0 0
88 48 18 98 62 11 23 197 81 24 104 96 57 0 0 4 109 56 51 33 3 10 14 23 24 2 1 0 0 0 0 0 0 0 0 0 0 0 0 0 0 0 0
65 4 52 131 357 146 192 142 186 37 62 63 28 15 10 31 48 69 16 31 6 1 0 0 1 0 0 0 0 0 0 0 0 0 0 0 0 0 0 0 0 0 0
75 77 51 85 88 164 63 83 91 85 111 153 45 26 114 167 72 32 26 11 17 19 10 10 7 7 0 0 0 0 0 0 0 0 0 0 0 0 0 0 0 0 0
28 19 41 77 93 162 113 99 129 66 66 71 111 38 147 68 52 62 14 19 32 16 8 9 12 2 0 0 0 0 0 0 0 0 0 0 0 0 0 0 0 0 0

GFSGL_con_sbcape_027.txt.gz
CAPE
2792 2527 2849 3123 2740 2160 2389 1968 1496 1548 1198 936 1022 850 522 569 424 330 110 110 291 52 107 43 167 63 12 14 133 37 13 0 0 0 17 15 106 8 25 9 0 0 0
3095 2994 2741 2912 3086 2596 2124 2058 2077 1333 1522 1334 1110 1012 590 342 551 340 150 262 256 265 88 13 11 166 20 18 75 43 73 18 0 0 9 43 51 23 19 55 9 52 11
3119 3291 3180 2984 3064 3058 2494 2265 2288 1923 1568 1425 1385 1128 772 555 513 367 164 102 320 246 214 73 148 203 113 180 130 171 91 122 84 54 21 21 33 24 31 0 0 0 0
3297 3239 3260 3203 3209 3197 3127 2448 2487 2399 1849 1460 1262 1065 798 607 510 369 245 238 274 127 110 271 357 280 96 124 104 169 127 108 71 56 17 5 0 0 0 0 0 0 0
3170 3208 3111 3260 3319 3252 3171 3067 2328 2507 2345 1674 1279 998 834 630 505 328 324 456 416 287 204 374 385 332 401 341 159 170 183 85 79 69 40 15 5 1 0 0 0 0 0
2775 3016 3039 2986 3319 3243 3171 3100 3014 2434 2706 1936 1214 1189 1015 926 715 347 339 353 481 420 294 359 348 596 666 650 461 160 166 108 60 10 4 0 0 0 0 0 0 0 0
1958 2711 2849 2925 3155 3235 3235 2985 3088 2810 2947 2564 1718 1209 1181 1080 621 305 301 330 461 418 369 447 461 381 551 247 16 107 40 37 63 32 27 3 15 5 1 4 0 0 0
1848 2184 2681 2887 3155 3439 3411 3148 3047 3160 3010 2796 1962 1549 1369 1162 602 42 141 121 361 382 577 674 555 472 245 214 240 188 237 140 38 11 0 0 0 6 35 33 4 0 0
1933 2125 2690 2956 3222 3482 3556 3402 3128 3159 2843 2594 2104 1760 1520 563 92 0 0 1 52 39 19 356 426 261 405 486 234 215 65 76 405 174 48 6 9 55 46 0 0 0 0
1781 2472 2592 2948 3268 3657 3612 3500 3213 3043 2921 2232 1685 1425 952 340 0 0 0 0 0 0 44 249 433 398 466 255 150 143 56 75 34 4 7 1 0 0 0 1 2 0 0
2629 2994 3300 3455 3830 3817 3600 3512 3308 2773 2233 2029 1610 1127 731 391 0 0 0 11 24 70 92 298 276 311 10 1 6 48 45 0 0 0 0 0 0 0 0 19 27 14 6
3611 3676 4159 4106 4013 3883 3651 3000 2300 2066 2062 1581 1180 818 592 393 217 0 0 3 101 188 174 196 131 87 0 0 0 0 0 0 0 0 0 0 0 0 0 0 0 12 5
3916 4048 4026 3702 3670 3049 2479 2040 1659 1282 1266 1018 948 823 694 635 336 60 0 0 0 0 6 0 0 0 0 0 0 0 0 0 0 0 0 0 0 0 0 0 0 0 0
3779 3230 2480 2170 1853 1673 1409 1486 1149 910 847 843 769 732 660 712 0 1 0 0 0 0 0 0 0 0 0 0 0 0 0 0 0 0 0 0 0 0 0 0 0 0 0
2316 1760 1469 874 149 1 1 182 376 0 463 894 866 803 822 699 72 0 0 1 0 0 0 0 0 0 0 0 0 0 0 0 1 8 0 0 0 0 0 0 0 0 0
1472 1392 549 160 0 0 0 0 0 0 0 0 5 362 0 108 51 0 0 0 0 0 0 0 0 0 0 0 0 0 7 16 11 13 0 0 0 0 0 0 0 0 0
1208 1032 511 118 6 0 0 0 0 0 0 0 0 0 0 0 0 0 0 0 0 0 0 0 0 0 0 0 2 16 16 19 6 0 0 0 0 0 0 0 0 0 0
1029 1047 996 540 183 37 0 0 0 0 0 0 0 0 0 0 0 0 0 0 0 0 0 0 0 0 0 0 0 0 0 0 0 0 0 0 0 0 0 0 0 0 0
1095 1131 1090 950 824 530 251 0 0 0 0 0 0 0 0 0 0 0 0 0 0 0 0 0 0 0 0 0 0 0 0 0 0 0 0 0 0 0 0 0 0 0 0
131 404 608 544 373 561 346 118 0 0 0 0 0 0 0 0 0 0 0 0 0 0 0 0 0 0 0 0 0 0 0 0 0 0 0 0 0 0 0 0 0 0 0
8 0 19 0 0 3 0 0 3 0 0 0 0 0 0 0 0 0 0 0 0 0 0 0 0 0 0 0 0 0 0 0 0 0 0 0 0 0 0 0 0 0 0
32 0 0 1 7 26 41 31 43 29 0 0 0 0 0 0 0 0 0 0 0 0 0 0 0 0 0 0 0 0 0 0 0 0 0 0 0 0 0 0 0 0 0
5 13 9 3 10 1 0 0 20 49 32 2 0 0 0 0 0 0 0 0 0 0 0 0 0 0 0 0 0 0 0 0 0 0 0 0 0 0 0 0 0 0 0
12 23 2 3 4 0 4 3 0 6 9 0 0 0 0 0 0 0 2 0 0 0 0 0 0 0 0 0 0 0 0 0 0 0 0 0 0 0 0 0 0 0 0
14 24 40 4 9 18 4 19 10 0 0 0 0 0 0 0 18 0 5 3 0 0 0 0 0 0 0 0 0 0 0 0 0 0 0 0 0 0 0 0 0 0 0
24 45 27 21 23 44 32 15 8 5 10 20 8 14 3 1 0 1 0 0 0 0 0 0 0 0 0 0 0 0 0 0 0 0 0 0 0 0 0 0 0 0 0

GFSGL_con_sbcape_030.txt.gz
CAPE
1536 1612 1616 1623 1325 1245 1785 1312 922 190 340 217 431 168 112 35 4 46 3 14 1 3 1 0 0 0 0 0 0 0 0 0 0 0 0 0 0 0 0 0 0 0 0
1861 1886 1784 1795 1764 1528 1387 1812 1210 1052 357 480 418 354 267 133 51 94 24 26 39 3 0 0 0 1 1 0 0 2 0 0 0 0 0 0 0 0 0 0 0 0 0
1996 1988 2200 2217 2196 2058 1722 1593 1631 1242 956 659 525 606 394 333 166 134 76 15 0 33 4 0 0 0 10 1 0 1 25 19 9 1 0 0 0 14 2 0 0 0 0
2316 2115 2104 2295 2581 2497 2199 1814 1701 1757 1019 1030 794 729 617 288 278 277 127 24 20 54 36 3 0 0 15 22 55 80 24 18 19 36 11 2 0 0 0 0 0 0 0
2515 2566 2385 2333 2410 2706 2630 2234 1869 1784 1860 1110 1079 870 660 410 255 272 176 72 21 47 30 36 40 69 133 32 26 24 43 53 15 17 5 0 2 0 0 0 0 0 0
2574 2705 2729 2721 2592 2590 2792 2767 2186 2093 1919 1510 1083 895 547 602 493 283 226 179 156 116 73 52 71 298 332 233 97 34 17 34 10 4 7 0 0 0 0 0 0 0 0
2573 2735 2791 2872 2884 2859 2852 2847 2766 2229 2104 1716 1065 875 687 776 452 229 197 258 276 257 166 120 136 306 339 282 206 260 1 6 9 1 6 0 0 0 0 0 0 0 0
2509 2713 2864 2834 2904 2927 3002 2918 2870 2678 2164 2137 1438 1045 1038 921 293 84 106 308 276 253 220 184 260 320 262 117 82 21 10 2 0 0 0 2 0 0 0 0 0 0 0
2363 2488 2730 2809 2767 3015 2996 2963 2816 2861 2499 2486 1882 1322 1174 1118 187 1 39 164 281 294 282 348 479 373 199 83 46 11 0 9 76 61 17 5 2 3 1 0 0 0 0
1702 2041 2559 2692 2745 2788 3038 2962 2851 2895 2796 2585 2174 1655 1523 1159 56 0 113 138 175 143 4 17 82 259 213 22 0 6 15 29 3 0 0 0 0 0 0 0 0 0 0
1556 1716 1857 2519 2690 2811 3079 3115 2950 2834 2608 2578 1898 1545 968 456 0 0 0 0 12 0 0 0 14 49 0 12 0 3 8 0 0 0 0 0 0 0 0 0 0 0 1
1204 1369 1792 2297 2666 2875 3228 3173 2813 2669 2327 1719 1034 847 586 119 46 0 0 0 0 0 6 54 5 1 0 5 1 0 0 0 0 0 0 0 0 0 0 0 0 1 4
1502 1748 2177 2473 2778 3186 3251 3009 2452 1989 1698 1109 943 724 449 169 0 0 0 0 0 13 47 11 0 1 1 1 0 0 0 0 0 0 0 0 0 0 0 0 0 0 0
2218 3188 3452 3298 3311 3153 2891 2543 1896 1334 952 841 467 607 519 454 26 0 0 1 0 0 0 0 0 0 0 0 0 0 0 0 0 0 0 0 0 0 0 0 0 0 0
3338 3152 2660 1943 1147 15 1 551 645 194 404 498 667 549 460 322 9 0 0 0 0 0 0 0 0 0 0 0 0 0 0 0 0 0 0 0 0 0 0 0 0 0 0
1289 809 480 37 1 1 0 0 0 1 0 337 201 65 1 187 0 0 1 1 1 0 0 0 0 0 0 0 0 0 0 0 0 0 0 0 0 0 0 0 0 0 0
466 100 6 6 2 2 0 0 0 1 3 0 1 0 0 0 3 3 2 2 0 0 0 0 0 0 0 0 0 0 0 0 0 0 0 0 0 0 0 0 0 0 0
115 0 36 12 0 0 0 0 0 0 0 0 0 0 2 2 2 0 0 0 1 0 0 0 0 0 0 0 0 0 0 0 0 0 0 0 0 0 0 0 0 0 0
312 139 37 28 0 0 0 0 0 0 0 0 0 0 0 0 0 0 0 0 0 0 0 0 0 0 0 0 0 0 0 0 0 0 0 0 0 0 0 0 0 0 0
177 336 355 136 11 0 0 0 0 0 0 0 0 0 0 0 0 0 0 0 0 0 0 0 0 0 0 0 0 0 0 0 0 0 0 0 0 0 0 0 0 0 0
27 136 211 215 195 50 0 0 0 0 0 0 0 0 0 0 0 0 0 0 0 0 0 0 0 0 0 0 0 0 0 0 0 0 0 0 0 0 0 0 0 0 0
0 0 0 2 0 0 0 0 0 0 0 0 0 0 0 0 0 0 0 0 0 0 0 0 0 0 0 0 0 0 0 0 0 0 0 0 0 0 0 0 0 0 0
0 0 0 0 0 0 0 0 0 0 0 0 0 0 0 0 0 0 0 0 0 0 0 0 0 0 0 0 0 0 0 0 0 0 0 0 0 0 0 0 0 0 0
0 0 0 0 0 0 0 0 0 0 0 0 0 0 0 0 0 0 0 0 0 0 0 0 0 0 0 0 0 0 0 0 0 0 0 0 0 0 0 0 0 0 0
20 1 6 1 3 0 0 0 0 0 0 0 0 0 0 0 0 0 0 0 0 0 0 0 0 0 0 0 0 0 0 0 0 0 0 0 0 0 0 0 0 0 0
30 28 2 0 0 0 0 0 1 0 0 0 0 0 0 0 0 0 0 0 0 0 0 0 0 0 0 0 0 0 0 0 0 0 0 0 0 0 0 0 0 0 0

GFSGL_con_sbcape_033.txt.gz
CAPE
890 923 1015 1057 1022 1008 888 670 385 165 58 164 294 116 22 0 0 0 0 0 0 0 0 0 0 0 0 0 0 0 0 0 0 0 0 0 0 0 0 0 0 0 0
970 948 847 839 826 990 1283 1062 636 233 117 73 227 117 73 7 0 8 0 0 0 0 0 0 0 0 0 0 1 3 0 0 0 0 0 0 0 0 0 0 0 0 0
825 1094 1104 1063 1101 943 987 1260 1164 730 188 193 176 237 108 63 1 0 10 0 0 0 0 0 0 0 0 0 1 0 0 0 0 0 0 0 0 0 0 0 0 0 0
946 1096 1204 1222 1254 1274 1073 911 1276 1338 898 320 303 345 255 165 72 39 18 11 5 1 0 0 0 0 0 0 0 0 0 0 0 0 0 0 0 0 0 0 0 0 0
1145 1312 1300 1403 1404 1491 1442 1264 1098 1284 1334 864 504 383 400 264 273 124 76 38 9 20 0 0 0 0 0 0 0 0 0 0 0 0 0 0 0 0 3 0 0 0 0
1395 1570 1582 1623 1733 1793 1808 1735 1466 1329 1364 888 830 647 548 479 310 203 232 136 39 32 27 5 9 53 19 1 0 0 0 0 0 1 0 0 0 0 0 0 0 0 0
1716 1764 1778 1735 1813 1924 2087 2106 1869 1561 1440 1235 1020 870 690 673 320 99 155 284 106 46 8 48 0 52 16 70 4 0 0 0 1 0 1 0 0 0 0 0 0 0 0
1897 1974 2097 1999 1949 1969 2042 2232 2268 1951 1676 1552 1063 983 852 751 288 63 68 361 160 155 151 70 51 40 27 40 8 2 0 2 0 0 0 0 0 0 0 0 0 0 0
1904 2107 2229 2328 2304 2248 2203 2248 2350 2378 1954 1870 1408 1019 961 901 183 27 38 356 302 292 252 158 127 83 37 50 9 13 0 0 0 0 0 0 0 0 0 0 0 0 0
1976 2101 2281 2385 2441 2454 2430 2383 2383 2483 2419 2014 1793 1362 1256 1135 99 12 20 450 438 339 254 229 195 116 18 0 5 0 0 0 0 0 0 0 0 0 0 0 0 0 0
1673 2117 2244 2426 2470 2435 2506 2513 2522 2537 2493 2141 2025 1860 1210 1198 33 0 103 434 550 424 310 1 0 11 15 0 0 0 0 0 0 0 0 0 0 0 0 0 0 0 0
1321 1491 2054 2133 2426 2427 2423 2594 2618 2635 2611 2372 2414 1734 1310 406 0 0 51 447 219 95 0 0 0 1 0 0 1 0 0 0 0 0 0 0 0 0 0 0 0 0 0
840 1097 1199 1662 2110 2354 2449 2669 2758 2626 2599 2395 1907 1245 676 295 0 0 0 0 0 0 0 0 0 1 1 1 0 0 0 0 0 0 0 0 0 0 0 0 0 0 0
569 747 1032 1168 1716 2202 2511 2677 2754 2574 2434 1776 1265 864 432 158 72 0 0 0 0 0 1 0 0 0 0 0 1 0 0 0 0 0 0 0 0 0 0 0 0 0 0
948 838 1229 1428 1508 929 0 1562 2657 1008 1830 1066 739 456 27 88 5 0 0 0 0 0 0 0 0 0 0 0 0 0 0 0 0 0 0 0 0 0 0 0 0 0 0
1357 600 239 7 1 1 0 0 1 1 25 44 341 206 1 64 29 1 1 1 0 0 0 0 0 0 0 0 0 0 0 0 0 0 0 0 0 0 0 0 0 0 0
24 1 2 3 39 82 21 58 11 0 5 3 2 1 8 0 2 2 2 2 2 0 0 0 0 0 0 0 0 0 0 0 0 0 0 0 0 0 0 0 0 0 0
11 16 30 64 192 12 5 0 0 24 35 0 0 1 2 2 2 2 2 1 0 0 0 0 0 0 0 0 0 0 0 0 0 0 0 0 0 0 0 0 0 0 0
18 1 1 1 53 7 0 0 4 14 2 0 0 0 0 1 1 1 1 0 0 0 0 0 0 0 0 0 0 0 0 0 0 0 0 0 0 0 0 0 0 0 0
21 0 1 1 0 0 0 0 0 0 0 1 1 0 0 0 0 0 0 0 0 0 0 0 0 0 0 0 0 0 0 0 0 0 0 0 0 0 0 0 0 0 0
0 0 1 0 0 0 0 0 0 0 0 0 0 0 0 0 0 0 0 0 0 0 0 0 0 0 0 0 0 0 0 0 0 0 0 0 0 0 0 0 0 0 0
0 0 0 0 0 0 0 0 0 0 0 0 0 0 0 0 0 0 0 0 0 0 0 0 0 0 0 0 0 0 0 0 0 0 0 0 0 0 0 0 0 0 0
0 0 0 0 0 0 0 0 0 0 0 0 0 0 0 0 0 0 0 0 0 0 0 0 0 0 0 0 0 0 0 0 0 0 0 0 0 0 0 0 0 0 0
0 0 0 0 0 0 0 0 0 0 0 0 0 0 0 0 0 0 0 0 0 0 0 0 0 0 0 0 0 0 0 0 0 0 0 0 0 0 0 0 0 0 0
0 0 0 0 0 0 0 0 0 0 0 0 0 0 0 0 0 0 0 0 0 0 0 0 0 0 0 0 0 0 0 0 0 0 0 0 0 0 0 0 0 0 0
6 3 2 0 10 5 2 2 6 13 17 4 0 0 0 0 0 0 0 0 0 0 0 0 0 0 0 0 0 0 0 0 0 0 0 0 0 0 0 0 0 0 0

GFSGL_con_sbcape_036.txt.gz
CAPE
622 738 759 722 673 605 505 442 302 336 499 536 569 555 184 35 0 0 0 0 0 0 0 0 0 0 0 0 0 0 0 0 0 0 0 0 0 0 0 0 0 9 2
487 779 834 804 759 665 634 671 477 343 272 444 511 457 251 82 38 6 0 0 0 0 0 0 0 0 0 0 0 0 0 0 0 0 0 0 0 0 0 0 0 0 13
466 686 828 864 855 827 842 893 714 490 304 239 421 410 331 160 32 70 49 37 11 0 0 0 0 0 0 0 0 0 0 0 0 0 1 0 0 0 0 0 0 9 0
488 718 757 832 878 922 992 1078 1045 735 405 305 305 481 393 257 141 84 111 85 62 41 14 1 0 0 0 0 0 0 0 0 0 0 1 5 0 1 0 13 16 0 0
570 685 858 809 803 854 881 959 1126 1164 875 384 404 398 424 334 270 202 140 127 117 101 74 33 9 0 0 0 0 0 0 0 0 1 0 0 0 4 14 0 1 0 0
705 725 860 1035 1056 1043 1080 960 860 1133 1260 972 538 538 464 450 329 147 205 207 172 163 146 84 62 2 0 0 0 0 0 5 17 33 47 2 8 10 0 0 0 11 74
862 894 970 1076 1192 1209 1260 1242 1111 954 1106 1301 1052 755 677 657 273 134 146 365 334 237 245 222 82 139 14 77 0 0 0 0 7 94 89 1 16 2 3 1 0 0 10
1058 1041 1183 1266 1309 1374 1383 1479 1440 1300 1166 1235 1134 1127 992 894 281 98 126 514 441 351 281 218 277 208 89 80 193 62 13 4 0 16 6 55 9 1 4 25 4 0 1
1314 1313 1389 1567 1523 1500 1613 1758 1771 1705 1539 1407 1436 1206 1130 1134 326 47 28 516 461 369 281 253 280 275 179 4 119 186 87 0 0 0 0 0 0 0 0 3 3 2 0
1565 1629 1648 1707 1703 1624 1689 1816 1944 1994 1932 1731 1595 1406 1216 1289 263 5 15 546 532 495 426 378 153 290 42 0 231 216 213 37 0 0 0 0 0 0 0 0 0 0 0
1374 1700 1804 1902 1960 1910 1869 1860 1907 2046 2193 2119 2007 1826 1328 1270 782 0 0 663 635 527 517 421 308 18 0 0 36 143 135 0 0 0 0 0 0 0 0 0 0 0 0
1194 1649 1879 2052 2176 2191 2228 2166 2020 2137 2353 2367 2253 1944 1520 1427 879 1 0 474 546 636 587 220 190 0 0 0 1 0 0 0 0 0 0 0 0 0 0 0 0 0 0
897 1144 1759 2010 2215 2414 2487 2500 2469 2506 2460 2401 2343 1929 1808 1475 587 1 0 40 166 400 94 35 0 0 2 1 1 1 0 0 0 0 0 0 0 0 0 0 0 0 0
465 707 999 1423 1959 2222 2273 2410 2597 2656 2604 2535 2354 2060 1623 602 41 2 1 0 0 0 1 0 0 0 0 0 1 0 0 0 0 0 0 0 0 0 0 0 0 0 0
553 592 1019 858 24 0 0 1 149 2 708 2428 2326 1707 431 129 0 0 0 1 3 1 0 1 0 0 1 1 1 0 0 0 0 0 0 0 0 0 0 0 0 0 0
117 20 12 1 1 5 14 0 0 0 0 0 0 15 22 0 1 0 0 1 2 1 0 0 0 0 0 0 0 0 0 0 0 0 0 0 0 0 0 0 0 0 0
6 4 4 28 2 0 0 0 0 0 0 0 0 0 0 0 12 1 1 1 1 0 0 0 0 0 0 0 0 0 0 0 0 0 0 0 0 0 0 0 0 0 0
133 86 23 1 0 0 0 0 0 0 0 1 1 2 2 0 2 0 1 1 0 0 0 0 0 0 0 0 0 0 0 0 0 0 0 0 0 0 0 0 0 0 0
1 1 113 1 0 1 1 0 0 0 0 0 0 1 0 0 1 1 1 1 2 0 0 0 0 0 0 0 0 0 0 0 0 0 0 0 0 0 0 0 0 0 0
1 0 7 2 2 1 1 3 1 1 1 0 0 1 7 6 5 0 3 3 1 0 0 0 0 0 0 0 0 0 0 0 0 0 0 0 0 0 0 0 0 0 0
6 3 0 2 1 0 1 3 1 4 1 1 0 1 1 2 3 0 0 0 0 0 0 0 0 0 0 0 0 0 0 0 0 0 0 0 0 0 0 0 0 0 0
2 2 1 1 0 0 1 1 1 1 1 0 0 0 0 0 0 0 0 0 0 0 0 0 0 0 0 0 0 0 0 0 0 0 0 0 0 0 0 0 0 0 0
0 0 0 0 0 0 0 0 0 0 0 0 1 0 0 0 0 0 0 0 0 0 0 0 0 0 0 0 0 0 0 0 0 0 0 0 0 0 0 0 0 0 0
0 0 0 0 0 0 0 0 0 0 0 0 0 0 0 0 0 0 0 0 0 0 0 0 0 0 0 0 0 0 0 0 0 0 0 0 0 0 0 0 0 0 0
0 0 6 0 0 0 0 0 0 0 0 0 0 0 0 0 0 0 0 0 0 0 0 0 0 0 0 0 0 0 0 0 0 0 0 0 0 0 0 0 0 0 0
19 7 0 0 0 0 12 13 8 0 0 1 0 0 0 0 0 0 0 0 0 0 0 0 0 0 0 0 0 0 0 0 0 0 0 0 0 0 0 0 0 0 0

GFSGL_con_sbcape_042.txt.gz
CAPE
3124 3324 3466 3429 3056 3299 2981 3608 3755 3582 3663 3019 2822 2457 2386 2894 3051 3044 2841 2014 2078 1831 1048 697 1050 790 81 73 64 28 14 0 0 0 0 176 438 486 128 223 287 252 81
2869 3427 3474 3571 3485 3125 3510 3509 3408 3792 3813 3799 3567 3121 2656 2651 3005 3033 2823 2066 2078 1869 1510 996 931 679 849 764 184 1125 313 352 9 267 142 64 597 531 665 706 332 34 12
2568 2327 3012 3378 3283 3533 3676 3624 3636 3818 3939 3495 3795 3899 3344 2932 2936 2901 2822 2614 2221 2026 1716 1433 1011 839 923 511 472 364 228 269 315 104 101 266 52 250 557 649 389 304 252
1807 2170 2970 3436 3475 3473 3609 3768 3810 3870 4069 4064 4079 4208 3954 3257 2809 2717 2757 3077 2747 2215 1994 1715 1362 829 852 903 713 846 762 440 649 252 77 33 188 298 319 90 390 492 182
2553 2556 2921 3361 3591 3715 3727 3794 3823 3908 3924 4086 4112 4125 3816 3484 2426 3429 3292 3022 3375 2857 2674 2022 1575 1096 442 873 553 1295 1661 661 146 305 223 63 54 237 441 158 347 258 365
2837 2758 3103 3460 3790 3781 3845 3885 3988 3934 4046 4106 4073 4066 3874 2968 1740 1347 2661 3273 3447 3582 3208 2549 2327 995 584 206 247 361 1168 2014 1433 230 239 353 1309 432 418 419 142 293 247
2727 3032 3295 3527 3756 3920 3764 3812 4081 4136 3977 4190 4042 4099 4074 3928 1526 609 1031 3104 3250 3653 3683 3319 2282 1718 1220 1357 142 48 137 465 535 1533 1496 1153 935 969 1133 881 405 557 429
3033 3112 3407 3589 3707 3797 4012 3943 4140 4123 4107 4210 3913 3846 3963 3997 1930 242 374 2646 3427 3854 3701 3535 3508 3160 2666 2030 1615 806 538 952 856 468 1486 1265 1427 1204 1193 831 605 630 517
3144 3257 3453 3576 3611 3891 4048 3985 3559 3609 3541 3366 3512 3646 4043 4156 1903 49 127 2187 2693 3615 3619 3720 3502 3380 2392 683 1856 2027 1325 799 239 163 94 246 188 141 351 599 372 433 217
3177 3279 3264 3635 3934 3977 3671 3766 3425 3279 3175 2875 3316 3331 2919 3418 2679 25 20 2001 2534 2614 3510 3704 1853 2848 2180 179 1438 1405 714 651 1108 544 226 17 6 45 0 481 195 257 201
2324 2457 2983 3572 4111 3673 3937 3907 3874 3705 3596 3604 3137 3137 3471 3496 3558 320 0 1730 2146 2666 2747 3086 2870 845 464 24 470 1249 972 1098 655 1056 390 299 430 480 53 157 418 56 1
2719 2538 3131 3582 3138 2836 4053 3914 3948 4089 3926 3946 3152 2653 2797 2948 2418 1157 0 48 1475 2549 2788 2220 2234 568 1 0 10 613 391 620 772 316 387 420 394 105 23 72 3 0 0
2781 3270 3445 3597 3399 3755 3898 3795 3332 3597 3146 3249 3219 2721 2482 2595 2613 813 105 0 0 733 2528 2338 1316 0 0 1 1 1 38 513 616 315 392 381 45 48 58 0 0 0 0
2989 3279 3419 3612 3589 3379 3285 3355 3204 3076 3091 2963 2891 2883 2367 1979 1619 2010 0 0 0 0 1 1 0 4 1 0 1 0 148 242 465 382 354 183 82 13 0 0 0 0 0
3300 3359 3499 3516 3541 3659 3388 1893 3191 3617 1419 2741 2847 2830 2912 2967 2910 2105 526 137 40 0 0 4 6 13 4 1 1 1 31 30 124 309 334 177 16 0 0 0 0 0 0
3068 3058 3010 3123 3360 3280 2812 773 1 0 0 3 597 1772 2720 332 312 42 2 1 0 1 1 4 52 21 6 21 12 0 19 63 319 376 290 67 0 0 0 1 0 0 0
2625 2321 2136 2226 2516 2605 2435 1036 553 0 0 0 0 1 6 0 0 1 2 2 1 0 1 13 6 24 68 15 25 41 99 95 158 91 43 0 1 0 0 4 1 0 0
1759 1177 2045 2157 2170 1941 1793 1413 969 632 338 0 0 0 0 0 0 1 1 0 0 0 23 18 19 33 47 41 22 39 42 128 138 21 0 0 0 4 3 3 5 2 0
1514 1154 1287 1248 1218 986 817 572 333 56 15 5 0 0 0 2 2 1 0 6 4 7 89 159 226 37 95 85 55 5 30 24 25 3 0 0 7 10 10 4 1 0 0
590 133 316 552 502 456 245 111 51 220 325 0 6 8 1 0 4 7 14 13 9 6 73 147 129 50 49 8 5 35 51 12 5 0 0 6 12 8 4 0 0 0 0
671 493 87 695 649 736 652 427 332 135 10 1 12 3 0 3 3 6 9 35 56 62 131 37 3 4 6 40 24 34 4 1 0 1 14 14 8 0 0 0 0 0 0
747 593 346 240 234 246 157 81 4 4 2 5 8 1 0 17 10 11 16 26 17 12 19 28 24 74 26 28 22 1 0 0 4 11 10 1 0 0 0 0 0 0 0
647 785 486 383 297 11 110 121 84 46 5 2 1 4 5 5 6 5 3 1 6 61 175 121 173 60 17 4 0 0 0 0 0 0 0 0 0 0 0 0 0 0 0
420 407 345 256 227 199 154 157 80 1 4 4 3 0 140 215 194 100 80 71 46 25 7 7 2 0 0 0 0 0 0 0 0 0 0 0 0 0 0 0 0 0 0
42 95 189 205 63 91 172 139 127 110 225 137 96 55 38 43 44 33 14 1 2 0 0 0 0 0 0 0 0 0 0 0 0 0 0 0 0 0 0 0 0 0 0
0 0 0 0 0 0 8 21 42 41 46 13 5 15 31 13 34 58 13 0 0 0 0 0 0 0 0 0 0 0 0 0 0 0 0 0 0 0 0 0 0 0 0

GFSGL_con_sbcape_045.txt.gz
CAPE
4177 4144 4285 4294 4274 4385 3970 4011 3960 4336 4555 3841 4104 3590 3699 3784 4041 4356 4015 3561 3395 3169 2748 2841 2290 2292 283 87 123 80 30 13 3 0 13 931 1529 576 351 336 128 666 86
3952 4069 4226 4316 4307 4225 4256 4062 4244 4293 4456 4598 4093 4203 3947 3796 4071 4409 3830 2591 3463 3170 2787 2614 2245 1130 2342 2002 338 1737 512 831 42 1814 844 579 1172 1632 1675 1625 545 31 163
3506 3496 4049 4206 4315 4226 4253 4354 4295 4398 4463 4403 4391 4393 4236 3916 3944 4433 4248 3965 3455 3392 3145 2908 2348 2154 2632 814 950 679 428 857 725 334 184 321 367 473 1123 1587 1638 1082 183
2829 3200 3784 4271 4217 4196 4250 4425 4364 4484 4449 4507 4517 4448 4426 4318 3878 4106 4124 4241 3862 3428 3416 3123 2693 2260 2227 2473 1982 1685 1711 923 828 560 292 158 401 1044 405 347 796 472 448
3186 3448 3719 4158 4409 4455 4364 4297 4417 4451 4439 4568 4596 4554 4618 4432 3483 3892 3874 4092 4264 4010 3815 3576 3039 2375 1379 1852 1476 1619 1417 1258 397 456 451 317 162 319 900 483 289 436 815
3305 3359 3840 4126 4389 4498 4489 4433 4559 4540 4576 4610 4634 4603 4611 4198 2564 1907 2850 3797 4171 4347 4217 3962 3510 1742 1197 507 672 489 1102 1853 1300 465 468 808 2252 1151 430 427 466 229 499
3223 3900 3857 4196 4272 4507 4591 4608 4526 4573 4620 4644 4670 4722 4653 4656 2856 1063 1198 3425 3995 4207 4372 4309 3935 2640 1809 1993 174 238 99 452 954 1744 1518 1823 2499 1879 1804 1910 1567 1022 503
3740 3354 4133 4140 4333 4524 4642 4645 4689 4702 4697 4708 4712 4747 4739 4640 3425 778 365 2787 3402 3781 3808 3825 4038 3611 2778 2170 2106 797 510 453 394 440 1602 1784 1758 2307 1951 2126 2035 1682 1044
3751 3886 3568 4290 4415 4612 4634 4729 4743 4697 4701 4682 4667 4744 4695 4689 3066 1825 152 2347 3025 3240 3243 3587 3660 3732 2867 1125 2316 2043 1051 670 326 372 269 148 216 363 864 1260 570 766 366
3789 3895 4145 4383 4540 4545 4699 4814 4788 4728 4649 4102 4474 4637 4282 4706 3439 415 529 3072 2987 2789 3125 3063 2325 3184 3057 375 2057 2486 2172 1158 691 380 86 18 29 37 8 919 1029 494 948
3178 3763 4399 4471 4654 4707 4802 4847 4791 4676 4196 4546 4489 4577 4721 4432 4094 106 42 2574 2606 2561 2752 2931 3084 1418 2230 320 450 2531 2100 1390 424 499 321 234 261 481 123 106 474 462 856
3894 3959 4387 4634 4304 4183 4910 4886 4853 4793 4708 4774 4574 4475 4259 4756 3599 266 1710 461 2252 2999 2839 2749 2864 1587 752 40 0 1061 549 367 443 380 426 373 392 341 400 258 313 558 394
4536 4505 4613 4755 4645 4560 4773 4979 4483 4734 3741 3857 3613 3590 3315 3414 3968 1811 1036 829 12 1187 3011 2051 1189 831 0 0 0 1 2 88 375 281 205 132 183 362 347 316 383 370 15
4737 4793 4836 4868 4890 4630 4021 3914 3713 3524 3637 3323 3377 3178 3260 3115 3126 3281 2877 411 48 46 515 1304 1141 158 0 27 0 0 151 48 191 400 304 314 296 191 160 73 28 0 0
3973 3648 4247 3820 4027 4165 3176 2006 3389 2615 1543 3395 3229 3238 3100 3134 2897 2191 2355 2984 1808 725 689 312 6 5 1 2 1 9 61 283 232 359 537 476 167 52 43 11 9 0 0
3485 3378 3209 3295 3703 3709 2677 992 0 1 1 2 2 558 2475 409 196 1686 2188 1415 800 240 652 48 3 2 1 1 1 3 19 114 341 153 112 77 62 11 0 0 0 0 2
4420 4389 3195 2883 3550 3612 3764 3313 2878 0 1 2 2 2 0 2 0 1 0 0 0 0 170 2 2 3 1 6 4 6 12 100 161 72 129 181 19 1 0 0 0 9 0
2868 2151 2970 2854 2925 2943 2918 2301 2476 2462 2219 982 0 0 2 2 2 1 1 0 2 1 1 0 2 2 11 6 2 3 87 144 63 370 239 1 19 11 0 30 15 3 0
2373 2350 2402 2497 2271 1926 1861 1607 1302 1074 714 340 10 0 0 1 0 0 0 2 2 0 28 29 3 0 2 3 11 38 37 83 67 10 0 18 36 18 19 3 5 0 2
1090 693 1180 1434 1212 1321 1203 968 725 794 609 418 236 269 0 2 3 4 1 19 21 22 81 152 229 68 78 20 21 17 32 1 1 25 79 94 57 8 8 8 3 0 0
775 811 737 1005 1017 1009 932 778 479 463 542 319 193 12 0 9 7 7 4 18 17 19 55 127 179 89 87 80 27 1 1 25 26 22 2 14 55 8 17 29 10 0 0
737 689 643 563 491 428 374 171 102 60 52 13 3 0 0 1 10 14 8 20 27 62 180 141 90 30 21 6 0 8 34 43 71 55 54 44 38 14 14 1 0 0 0
283 411 419 352 259 234 274 238 98 107 98 75 16 2 2 6 8 8 2 8 38 175 37 36 8 2 0 1 3 7 21 27 66 96 100 37 13 3 2 0 0 0 0
20 54 98 154 105 128 194 200 67 8 51 40 69 102 124 138 147 152 253 181 226 221 125 75 79 130 91 60 75 38 72 43 16 10 8 4 1 0 0 0 0 0 0
0 0 0 56 59 101 77 29 66 173 128 177 38 25 36 199 215 109 188 170 161 125 148 131 85 44 16 6 1 0 0 0 0 0 0 0 0 1 0 0 0 0 0
1 0 1 1 3 5 4 2 1 0 3 1 4 18 46 20 9 3 23 18 41 44 31 20 14 1 0 0 0 0 0 0 0 0 0 0 0 0 0 0 0 0 0

GFSGL_con_sbcape_048.txt.gz
CAPE
3617 3708 3560 3574 3394 2902 2284 2755 2440 2842 3071 4311 3957 3258 3108 3204 3200 3698 3177 3056 3347 2772 2647 2394 2044 1458 1177 1321 997 1208 1033 889 617 662 1214 1199 908 531 146 552 233 335 9
3746 3781 3770 3850 3903 3651 2996 2726 2970 3340 3526 3526 3943 3566 3279 2995 3322 3427 3387 2600 3231 2862 2452 2663 2691 1616 1662 1900 1977 1019 946 1207 858 1073 1522 1233 1116 864 1008 1309 699 134 177
3643 3828 3864 3924 3979 4008 3854 3206 3240 3062 3528 3491 4091 3707 3298 3256 3089 3271 3320 3289 2493 3147 2841 2403 2234 2103 1713 1108 1304 1345 1105 1622 1892 779 997 1420 1153 1162 1045 1130 1375 952 699
3094 3826 3864 3992 4030 4078 4044 3975 3481 3558 3252 3768 3695 3702 3752 3288 3194 3069 3215 3504 3330 2971 3132 2743 2502 2066 1595 1873 1237 954 1145 1134 830 1176 675 378 1155 954 887 910 968 952 558
2651 3239 3692 3775 4080 4071 4132 4104 4091 3761 3764 3575 3875 3856 3461 3609 3286 3117 3087 3563 3612 3421 3072 3125 2765 2376 1729 1459 1647 1494 797 1076 921 435 532 602 514 1016 680 584 501 730 524
3004 3049 3549 3719 3830 4105 4063 4104 4089 4150 3985 4137 4008 3965 3955 3567 3269 2662 2808 3203 3571 3513 3439 3055 3007 2256 1789 1117 1178 1177 1254 667 610 454 365 304 420 694 1298 549 602 713 377
2920 3593 3666 3788 3894 4031 4161 4155 4092 4181 4176 4159 4189 4163 4047 3965 3219 1867 1557 2911 3076 3383 3415 3287 3043 2939 2063 1654 521 696 449 573 501 535 297 447 905 1127 592 1251 1142 989 691
3680 3550 3999 4048 3970 4131 4226 4260 4230 4139 4240 4215 4177 4196 4163 4083 3382 1490 705 2309 2857 3079 3137 3197 3058 2944 2820 2189 1545 625 609 361 192 434 536 510 1283 1436 1393 1175 895 845 860
3536 3537 3633 4139 4126 4120 4253 4312 4333 4297 4264 4347 4290 4256 4253 4099 3008 1631 272 1847 2517 2712 2844 3063 3194 3099 2880 1487 1848 1512 686 513 295 217 584 435 312 578 968 735 715 514 346
3640 3519 3965 3700 4190 4221 4195 4311 4388 4409 4298 4310 4316 4315 4126 4292 3984 1187 456 2979 2573 2514 2560 2579 1976 2790 2887 1411 1478 1821 1644 939 522 210 75 0 50 121 212 659 555 433 289
3619 3944 3971 4056 3764 4313 4390 4405 4450 4449 4390 4339 4356 4336 4398 4314 4344 1884 1 3347 3276 2721 2336 2116 2277 1659 764 583 285 1892 1776 1749 822 399 196 50 43 55 54 61 314 292 196
4008 4209 4243 4432 3769 4085 4405 4496 4551 4539 4484 4417 4372 4397 4377 4431 3813 2346 0 476 3200 3101 2717 2501 2537 2183 1222 238 0 1245 1351 1335 1252 299 120 28 13 62 48 78 76 163 154
5219 4693 4567 4456 4418 4184 4503 4511 4577 4612 4497 4423 4237 4334 4106 4180 4339 2833 23 0 0 943 1317 1405 507 656 0 0 1 49 38 604 681 308 161 81 8 31 14 109 88 71 37
5205 4963 4828 4802 4652 4493 4517 4543 4507 4444 4475 4234 4189 3870 4177 4018 3607 4228 403 11 19 314 1019 799 1164 951 633 322 0 0 154 803 484 235 0 0 1 90 97 189 46 11 0
4936 4832 4819 4660 4443 4623 2616 2486 4045 1766 1683 4324 3897 4003 3699 3749 2725 1459 1740 2507 3131 1694 1736 1979 2091 1436 773 491 14 2 281 596 275 19 0 2 39 148 18 1 0 0 0
4742 4649 4213 3976 4525 4358 1191 160 1 0 1 0 15 2206 0 1 2 13 99 4 6 695 1022 1288 608 287 322 318 3 19 103 278 89 0 11 23 23 0 0 1 0 0 0
4843 4205 3841 3372 4336 4097 2829 1747 139 0 1 1 2 2 13 2 2 2 2 2 2 113 807 183 28 0 0 0 1 2 2 1 46 39 7 3 1 1 0 0 0 0 0
4917 2387 3929 3492 4356 3910 3649 3608 2549 766 351 0 0 0 2 2 2 2 0 0 0 0 1 1 0 0 0 0 0 0 2 4 2 3 25 1 1 0 0 0 0 0 0
3354 3795 3945 3889 3821 3372 2937 2771 2516 3060 2318 0 0 0 0 2 1 0 0 14 5 4 0 5 18 0 0 0 0 0 0 6 6 7 1 1 0 0 0 0 0 0 0
2200 1492 2147 2256 2085 1978 1764 1548 1400 1338 1090 639 462 0 0 0 0 13 39 9 1 1 1 68 89 35 42 4 22 24 32 11 3 1 2 0 0 0 0 0 1 0 0
1295 1251 1100 1322 1298 1302 1265 1109 1084 986 802 813 51 0 0 28 75 39 1 4 3 6 12 70 53 33 28 30 17 4 5 2 1 0 0 0 0 0 0 3 0 0 0
948 872 1059 921 1017 897 806 725 584 504 246 43 0 0 0 1 9 27 19 17 24 103 68 69 8 22 5 11 8 18 5 7 1 0 2 0 4 4 16 13 6 0 0
646 381 518 479 391 80 103 64 21 94 103 64 1 0 0 39 49 29 18 6 24 80 136 83 26 10 6 19 8 3 8 5 0 0 0 0 0 12 18 2 0 0 0
5 0 5 10 50 28 1 56 48 23 92 73 103 107 74 116 133 86 131 86 62 66 39 8 2 0 0 6 3 0 0 1 4 7 7 16 20 1 1 0 0 0 0
0 0 0 0 0 0 0 0 0 0 0 0 1 0 0 0 0 0 174 314 479 451 287 177 141 101 31 17 9 14 0 0 24 18 39 40 30 32 1 0 0 0 0
0 0 0 0 0 0 1 2 1 2 1 1 1 1 2 2 3 4 1 0 0 0 31 214 250 189 216 226 4 0 0 0 0 0 16 25 12 20 0 0 0 0 0